Location: Unspecified
(33.6764°N, 0.0000°E)
Time: 02:34:15
(UTC+00:00)

Cosmos 923 - Visible Passes

Search period start: 04 April 2026 00:00
Search period end: 14 April 2026 00:00
Orbit: 774 x 790 km, 74.0° (Epoch: 29 March)

Date Brightness Start Highest point End Pass type
(mag) Time Alt. Az. Time Alt. Az. Time Alt. Az.
8 Apr 9.0 22:39:52 11° NNW 22:39:52 11° NNW 22:40:01 10° NNW visible
9 Apr 8.6 22:06:42 15° N 22:06:42 15° N 22:07:43 10° N visible
10 Apr 8.0 21:33:22 21° N 21:33:22 21° N 21:35:09 10° N visible
11 Apr 7.3 20:59:44 30° NNE 20:59:44 30° NNE 21:02:21 10° NNE visible
11 Apr 9.0 22:40:11 10° WNW 22:40:11 10° WNW 22:40:29 10° NW visible
12 Apr 6.6 20:25:39 40° ENE 20:25:39 40° ENE 20:29:22 10° NNE visible
12 Apr 8.5 22:06:03 16° WNW 22:06:53 17° WNW 22:10:13 10° NNW visible
13 Apr 6.7 19:50:34 28° ESE 19:51:33 30° E 19:56:06 10° NE visible
13 Apr 7.9 21:30:50 16° WSW 21:33:49 26° WNW 21:38:14 10° N visible
